[Iaude] MPEC J47: 2024 JS [a=1.01,e=0.13,i=19.1,H=27.3]

mpec at cfa.harvard.edu mpec at cfa.harvard.edu
Fri May 3 13:09:59 EDT 2024


M.P.E.C. 2024-J47                                   Issued 2024 May 3, 17:08 UT

     The Minor Planet Electronic Circulars contain information on unusual
         minor planets, routine data on comets and natural satellites,
         and occasional editorial announcements.  They are published
    on behalf of Division F of the International Astronomical Union by the
          Minor Planet Center, Smithsonian Astrophysical Observatory,
                          Cambridge, MA 02138, U.S.A.
			  
             Prepared using the Tamkin Foundation Computer Network

                              MPC at CFA.HARVARD.EDU
            URL https://www.minorplanetcenter.net/    ISSN 1523-6714

                                    2024 JS                                     


Observations:
     K24J00S*1C2024 05 01.33589514 00 37.910+22 30 55.00         20.46GVEJ047G96
     K24J00S 1C2024 05 01.34162314 00 40.830+22 33 52.20         20.21GVEJ047G96
     K24J00S 1C2024 05 01.34734214 00 43.740+22 36 51.20               VEJ047G96
     K24J00S KC2024 05 01.37828114 00 59.749+22 52 52.32         20.07GVEJ047I52
     K24J00S KC2024 05 01.37900014 01 00.145+22 53 14.46         20.47GVEJ047I52
     K24J00S KC2024 05 01.37972814 01 00.491+22 53 36.67         20.71GVEJ047I52
     K24J00S KC2024 05 01.38044614 01 00.872+22 53 58.60         21.05GVEJ047I52
     K24J00S KC2024 05 01.46004114 01 44.087+23 33 45.90         20.36GVEJ047I52
     K24J00S KC2024 05 01.46076014 01 44.508+23 34 07.36         20.44GVEJ047I52
     K24J00S KC2024 05 01.46148614 01 44.915+23 34 27.26         20.86GVEJ047I52
     K24J00S KC2024 05 01.46221214 01 45.332+23 34 48.61         21.17GVEJ047I52
     K24J00S KC2024 05 02.12460114 08 36.53 +28 22 51.9          20.5 GVEJ047H21
     K24J00S KC2024 05 02.12917014 08 38.40 +28 24 37.0          20.7 GVEJ047H21
     K24J00S KC2024 05 02.13299514 08 39.96 +28 26 04.7          20.7 GVEJ047H21
     K24J00S KC2024 05 02.16389814 09 00.299+28 37 57.32         20.81GVEJ047I52
     K24J00S KC2024 05 02.16546514 09 00.904+28 38 32.68         20.84GVEJ047I52
     K24J00S KC2024 05 02.16705314 09 01.584+28 39 09.47         20.79GVEJ047I52
     K24J00S KC2024 05 02.16863514 09 02.218+28 39 44.46         20.43GVEJ047I52
     K24J00S !C2024 05 03.35945 14 17 20.30 +34 31 16.7          20.9 GVEJ047673
     K24J00S !C2024 05 03.36277 14 17 21.17 +34 32 01.9                VEJ047673

Observer details:
673 Table Mountain Observatory, Wrightwood.  Observer J. Pittichova.  1.0-m
    f/15 reflector + CCD.
G96 Mt. Lemmon Survey.  Observer J. B. Fazekas.  Measurers T. Beuden, V. F.
    Carvajal, D. Fay, J. B. Fazekas, D. C. Fuls, A. R. Gibbs, A. D. Grauer, H.
    Groeller, J. K. Hogan, R. A. Kowalski, S. M. Larson, G. J. Leonard, D.
    Rankin, R. L. Seaman, F. C. Shelly, K. W. Wierzchos.  1.5-m reflector +
    10K CCD.
H21 Astronomical Research Observatory, Westfield.  Observer R. Holmes.
    Measurers T. Linder, R. Holmes, L. Horn.  0.76-m f/3.0 astrograph + CCD.
I52 Steward Observatory, Mt. Lemmon Station.  Observers V. F. Carvajal, G. J.
    Leonard.  Measurers T. Beuden, V. F. Carvajal, D. Fay, J. B. Fazekas, D.
    C. Fuls, A. R. Gibbs, A. D. Grauer, H. Groeller, J. K. Hogan, R. A.
    Kowalski, S. M. Larson, G. J. Leonard, D. Rankin, R. L. Seaman, F. C.
    Shelly, K. W. Wierzchos.  1.0-m prime focus + CCD.

Orbital elements:
2024 JS                                                  Earth MOID = 0.0123 AU
Epoch 2024 Mar. 31.0 TT = JDT 2460400.5                 Bell                    
M  60.52615              (2000.0)            P               Q                  
n   0.97702833     Peri.  256.35146     -0.39229095     -0.89662894             
a   1.0058455      Node   218.85443     +0.91839869     -0.36929479             
e   0.1281576      Incl.   19.10594     +0.05149426     -0.24429061             
P   1.01           H   27.39          G   0.15           U   7                  
Residuals in seconds of arc
240501 G96 (0.2+  3.2+)   240501 I52  0.1-  0.0     240502 I52  0.2+  0.0
240501 G96  0.1+  0.0     240501 I52  0.1+  0.4+    240502 I52  0.3-  0.3-
240501 G96  0.2-  0.5-    240501 I52  0.0   0.9-    240502 I52  0.2+  0.3+
240501 I52  0.0   0.5+    240501 I52  0.1+  0.9-    240502 I52  0.1+  0.7-
240501 I52  0.3+  0.6+    240502 H21  0.0   0.1+    240503 673  0.1-  0.6+
240501 I52  0.2-  0.4+    240502 H21  0.0   0.1+    240503 673  0.2-  0.0
240501 I52  0.1-  0.3+    240502 H21  0.0   0.1+

Ephemeris:
2024 JS                  a,e,i = 1.01, 0.13, 19                  q = 0.8769
Date    TT    R. A. (2000) Decl.     Delta      r    Elong.  Phase     V
2024 04 03    03 19 54.8 -59 23 03   0.1472  0.9625    71.2   100.5    26.8
...
2024 04 18    03 57 41.9 -65 46 16   0.06273 0.9956    80.4    96.0    24.8
...
2024 04 26    10 02 01.9 -71 58 09   0.01900 1.0132   111.0    68.0    21.2
...
2024 05 02    14 07 19.1 +27 36 02   0.02499 1.0261   136.4    42.6    21.1
2024 05 03    14 15 06.0 +33 01 22   0.03029 1.0282   130.9    47.8    21.7
2024 05 04    14 21 06.7 +36 45 51   0.03580 1.0303   127.0    51.4    22.1
...
2024 05 10    14 40 02.6 +46 02 31   0.07037 1.0426   116.0    60.5    23.9
...
2024 05 18    14 50 12.0 +49 02 18   0.1170  1.0582   110.5    63.5    25.1
...
2024 06 02    15 00 14.6 +49 14 28   0.2013  1.0845   105.2    64.5    26.4

M. P. C. Staff               (C) Copyright 2024 MPC           M.P.E.C. 2024-J47





More information about the Iaude mailing list